COSMOS 2513

Last updated on Aug. 3, 2020, 5:32 a.m. UTC

1 41121U 15075A   20215.74354966 -.00000157  00000-0  00000-0 0  9995
2 41121   0.0505 113.9979 0002415  14.8359 170.8616  1.00272284 17027
UTC
Height (km)
Latitude
Longitude
Inclination
Orbital Period
UTC large
Height (km)
Speed (km/s)
/
Latitude / Longitude
Inclination (degrees)
Orbital Period (minutes)
Azimuth
Elevation
Range (km)
Doppler Factor
iOS Compass Heading
iOS Angle

Next 30 passes for location: Hong Kong

Rise time Rise Azimuth (degrees) Set time Set Azimuth (degrees) Duration Max altitude (degrees)

No matching passes for this satellites